Tracking 19280 objects as of 13-Nov-2018
HD Live streaming from Space Station
objects crossing your sky now

CARTOSAT 2D

Track CARTOSAT 2D now!
10-day predictions


NORAD ID: 41948
Int'l Code: 2017-008A
Perigee: 511.3 km
Apogee: 519.0 km
Inclination: 97.4 °
Period: 94.8 minutes
Semi major axis: 6886 km
RCS: Unknown
Launch date: February 15, 2017
Source: India (IND)
Launch site: SRIHARIKOTA (SRI)
aabbcc
Your satellite tracking list
Your tracking list is empty




NASA's NSSDC Master Catalog

Two Line Element Set (TLE):
1 41948U 17008A   18316.89379673 +.00000496 +00000-0 +26717-4 0  9999
2 41948 097.4279 016.3277 0005563 215.3624 144.7236 15.19278871096511
Source of the keplerian elements: AFSPC